Regional Weather Roundup
Issued by NWS Goodland, KS

Home | Current Version | Previous Version | Graphics & Text | Print | Product List | Glossary On
Versions: 1 2 3 4 5 6 7 8 9 10 11 12 13 14 15 16 17 18 19 20 21 22 23 24 25 26 27 28 29 30 31 32 33 34 35 36 37 38 39 40 41 42 43 44 45 46 47 48 49 50
000
ASUS43 KGLD 301808
RWRGLD

GOODLAND FORECAST AREA HOURLY WEATHER ROUNDUP
NATIONAL WEATHER SERVICE GOODLAND KS
1200 PM MDT SUN AUG 30 2015

...OFFICIAL OBSERVATIONS...

CITY           SKY/WX    TMP DP  RH WIND       PRES   REMARKS
GOODLAND KS    MOSUNNY   87  43  21 S18G28    30.06F
HILL CITY KS   SUNNY     92  48  22 S10       30.02F
IMPERIAL NEB   SUNNY     91  44  19 S20G25    30.01F
MCCOOK NEB     SUNNY     92  46  20 S14       30.00F
AKRON CO       SUNNY     91  46  21 S17       30.06F
BURLINGTON CO  SUNNY     85  47  26 S21G26    30.09F
LIMON CO       SUNNY     83  50  31 S14       30.14F
$$

...UNOFFICIAL OBSERVATIONS...

CITY           SKY/WX    TMP DP  RH WIND       PRES   REMARKS
COLBY KS       SUNNY     90  45  20 S20       30.06F
GOVE KS          N/A     90  32  12 MISG        N/A
LENORA KS        N/A     88  32  13 MISG        N/A
NORTON KS      SUNNY     88  48  25 SE12      30.01
SHARON SPRINGS   N/A     88  49  25 SE16G23     N/A
TRENTON NEB      N/A     91  32  12 SW16        N/A
YUMA CO          N/A     89  51  26 SW12G26     N/A
$$


USA.gov is the U.S. government's official web portal to all federal, state and local government web resources and services.